Date,TemperatureHighF,TemperatureAvgF,TemperatureLowF,DewpointHighF,DewpointAvgF,DewpointLowF,HumidityHigh,HumidityAvg,HumidityLow,PressureMaxIn,PressureMinIn,WindSpeedMaxMPH,WindSpeedAvgMPH,GustSpeedMaxMPH,PrecipitationSumIn
2013-1-1,26.0,18.5,11.2,21.8,14.6,6.0,91,85,75,29.66,29.53,6,3,22,0.00
2013-1-2,14.3,9.0,5.0,10.9,4.3,0.2,87,81,75,29.72,29.53,6,4,22,0.00
2013-1-3,16.8,12.4,8.6,14.1,8.8,5.3,90,85,81,29.97,29.73,5,3,22,0.00
2013-1-4,27.6,15.0,3.7,24.7,11.7,1.2,93,87,74,29.98,29.72,8,4,22,0.00
2013-1-5,27.3,19.9,10.8,23.9,15.7,6.7,95,84,68,30.31,29.72,5,2,22,0.01
2013-1-6,20.5,13.2,2.8,18.8,9.4,-0.2,93,85,70,30.36,30.10,5,2,22,0.00
2013-1-7,20.7,14.1,5.9,18.5,8.2,-1.5,92,77,68,30.51,30.10,4,2,22,0.00
2013-1-8,33.6,20.2,0.8,28.1,15.2,-3.9,89,81,71,30.50,30.23,12,5,22,0.00
2013-1-9,35.3,28.4,21.7,28.9,23.8,19.4,92,83,64,30.54,30.03,4,2,22,0.06
2013-1-10,34.7,32.4,30.8,33.7,29.9,24.4,97,91,77,30.35,29.75,7,4,22,0.02
2013-1-11,30.8,26.2,24.5,25.6,20.9,19.2,86,80,76,30.51,30.35,8,5,22,0.00
2013-1-12,30.5,26.3,19.4,26.0,23.1,18.0,96,87,82,30.47,30.28,4,1,22,0.00
2013-1-13,37.6,31.1,19.6,37.1,29.5,18.2,98,94,88,30.30,30.14,6,2,22,0.02
2013-1-14,46.4,40.4,35.5,45.9,39.1,29.3,98,95,78,30.18,29.90,11,6,22,0.01
2013-1-15,35.0,25.3,15.5,28.8,17.8,11.0,87,73,63,30.38,30.18,4,2,22,0.00
2013-1-16,24.9,21.7,16.6,22.3,16.8,11.5,93,81,70,30.42,30.03,7,3,22,0.00
2013-1-17,36.2,25.8,11.8,32.7,22.3,5.9,94,87,70,30.23,29.78,8,4,22,0.04
2013-1-18,14.0,7.4,-2.4,7.2,1.1,-9.8,87,75,62,30.43,30.17,4,2,22,0.00
2013-1-19,25.9,14.4,-2.6,23.9,9.2,-7.8,93,80,62,30.48,30.13,9,3,22,0.00
2013-1-20,44.1,32.6,23.1,41.0,29.1,20.0,95,87,67,30.25,29.52,12,5,22,0.06
2013-1-21,34.8,16.4,9.2,26.7,3.7,-1.2,74,57,46,30.14,29.59,12,6,22,0.00
2013-1-22,13.6,8.7,4.2,5.9,0.8,-5.4,77,70,58,30.14,29.84,4,2,22,0.00
2013-1-23,3.9,0.4,-3.4,-5.3,-9.1,-13.8,76,64,54,29.96,29.84,11,5,22,0.00
2013-1-24,1.9,-2.5,-6.8,-7.5,-11.6,-14.0,72,64,53,29.92,29.83,8,4,22,0.00
2013-1-25,12.1,4.5,-4.7,3.2,-3.9,-12.6,74,68,56,30.11,29.88,6,3,22,0.00
2013-1-26,14.1,8.1,4.6,5.2,1.6,-1.0,83,74,63,30.12,29.98,5,2,22,0.00
2013-1-27,17.0,13.1,8.1,10.6,7.5,3.9,84,78,72,30.28,29.98,4,3,22,0.00
2013-1-28,21.5,14.3,8.8,8.2,3.8,1.4,79,63,47,30.32,30.20,4,2,22,0.00
2013-1-29,24.7,16.3,9.0,19.6,10.6,2.7,92,78,67,30.44,30.19,3,1,22,0.00
2013-1-30,32.9,22.3,12.8,31.1,19.4,10.7,93,89,83,30.43,30.01,10,5,22,0.02
2013-1-31,54.4,48.0,37.6,52.2,44.7,30.1,96,88,74,29.32,29.02,21,14,24,0.14
2013-2-1,37.5,26.7,14.8,30.0,12.9,4.8,75,56,47,29.97,29.24,13,7,22,0.00
2013-2-2,15.2,12.3,8.8,6.9,3.6,0.5,84,68,52,30.39,29.96,6,2,22,0.00
2013-2-3,28.5,20.0,11.8,27.5,16.4,3.4,96,86,65,30.40,29.71,5,2,22,0.00
2013-2-4,29.6,24.1,17.0,28.9,21.7,8.3,97,91,68,29.69,29.17,10,3,22,0.00
2013-2-5,17.0,9.9,-2.3,8.9,-0.4,-9.0,75,63,48,30.25,29.59,11,7,22,0.00
2013-2-6,22.1,9.3,-8.1,16.4,0.9,-12.1,89,69,45,30.27,30.13,7,1,22,0.00
2013-2-7,19.2,5.5,-0.3,16.7,-3.3,-12.1,91,67,51,30.68,30.13,7,4,22,0.00
2013-2-8,13.4,3.7,-6.1,5.1,-2.8,-10.1,86,75,51,30.79,30.58,3,1,22,0.00
2013-2-9,22.4,17.9,9.2,21.2,15.8,5.3,95,92,80,30.58,29.84,10,6,22,0.00
2013-2-10,23.4,21.4,17.2,22.2,20.0,15.5,95,94,93,30.30,29.83,10,6,22,0.00
2013-2-11,31.3,21.5,10.9,28.7,17.3,9.0,94,84,71,30.39,29.99,6,2,22,0.02
2013-2-12,41.3,32.6,26.7,39.2,31.3,25.2,97,95,91,29.98,29.38,11,4,22,0.20
2013-2-13,34.1,30.0,26.0,31.0,28.3,25.0,97,93,87,29.89,29.58,2,1,22,0.05
2013-2-14,30.8,28.4,25.6,28.7,26.5,24.4,95,92,86,30.10,29.86,2,0,22,0.00
2013-2-15,37.8,28.1,16.2,27.4,23.0,14.3,96,82,58,30.22,30.10,6,2,22,0.08
2013-2-16,44.7,36.8,31.8,35.6,31.2,27.1,92,80,69,30.19,29.97,8,4,22,0.09
2013-2-17,38.5,33.3,31.6,37.7,32.2,30.6,98,96,92,29.98,28.40,7,2,22,1.15
2013-2-18,33.3,26.3,22.7,32.5,24.8,18.5,98,94,82,29.53,28.42,9,6,22,0.00
2013-2-19,34.7,25.7,17.8,25.2,20.0,16.1,94,79,67,30.17,29.53,6,3,22,0.01
2013-2-20,35.3,28.6,15.3,32.4,25.9,13.6,97,90,74,30.15,29.55,15,6,24,0.11
2013-2-21,35.3,32.2,30.1,33.3,31.2,29.2,97,96,92,30.00,29.55,10,3,22,0.05
2013-2-22,30.2,27.0,23.8,29.2,23.3,18.0,96,86,78,30.50,30.01,10,6,22,0.00
2013-2-23,29.7,22.4,5.5,18.6,15.6,3.2,91,75,63,30.49,30.36,5,2,22,0.00
2013-2-24,27.4,14.1,1.3,19.8,10.9,-1.2,94,87,71,30.36,30.04,4,1,22,0.00
2013-2-25,32.9,25.0,14.5,26.7,20.9,12.8,95,85,74,30.36,30.04,5,2,22,0.00
2013-2-26,32.1,22.2,6.8,22.4,17.5,4.9,92,83,66,30.54,30.35,2,0,22,0.00
2013-2-27,34.4,18.3,0.6,24.7,13.4,-1.9,95,82,55,30.53,30.28,2,0,22,0.00
2013-2-28,36.2,25.1,16.7,29.4,22.6,15.0,94,90,76,30.27,29.88,3,1,22,0.00
2013-3-1,31.5,29.2,24.6,30.2,27.6,22.1,97,94,90,29.87,29.54,7,4,22,0.00
2013-3-2,34.1,32.3,30.9,33.3,31.6,30.1,98,97,96,29.62,29.50,5,2,22,0.13
2013-3-3,36.5,32.9,30.4,34.9,32.0,29.9,98,96,93,29.64,29.54,2,0,22,0.02
2013-3-4,38.0,33.9,31.4,35.6,32.6,30.6,98,95,90,29.85,29.54,7,1,22,0.39
2013-3-5,36.2,32.7,30.1,34.1,31.3,28.2,97,95,91,30.34,29.86,2,1,22,0.06
2013-3-6,35.5,31.7,29.7,29.6,28.3,26.9,93,87,75,30.59,30.34,4,1,22,0.00
2013-3-7,35.6,30.6,25.2,30.4,27.0,23.2,93,87,73,30.58,30.44,4,1,22,0.00
2013-3-8,35.9,28.6,23.4,31.0,25.9,21.9,95,90,81,30.44,30.39,5,2,22,0.00
2013-3-9,33.2,30.2,27.2,29.3,27.4,23.8,95,89,83,30.56,30.42,4,1,22,0.00
2013-3-10,36.3,30.3,23.4,30.0,26.5,21.8,96,86,76,30.60,30.49,3,0,22,0.00
2013-3-11,42.3,33.1,25.9,32.8,28.8,23.9,92,84,68,30.49,30.35,9,4,22,0.00
2013-3-12,44.7,37.0,31.6,38.7,33.9,29.4,93,88,79,30.42,30.33,12,7,22,0.00
2013-3-13,54.7,47.4,39.3,47.3,43.6,37.4,95,87,75,30.34,29.75,12,8,22,0.12
2013-3-14,47.8,41.0,31.2,47.0,35.7,26.0,98,83,49,29.74,29.59,11,4,22,0.98
2013-3-15,33.3,28.6,26.3,27.8,25.8,24.6,96,89,76,29.75,29.67,2,0,22,0.00
2013-3-16,30.5,24.7,9.8,26.7,18.9,7.7,96,80,54,29.91,29.66,3,1,22,0.07
2013-3-17,31.3,20.6,9.5,20.9,12.6,5.7,94,73,42,30.11,29.90,6,1,22,0.00
2013-3-18,22.6,15.4,8.5,9.9,5.0,2.4,82,64,46,30.42,30.11,6,3,22,0.00
2013-3-19,25.8,21.0,17.7,16.4,13.1,8.4,85,72,61,30.47,30.18,3,1,22,0.00
2013-3-20,37.2,27.3,18.8,34.5,23.9,15.3,96,87,73,30.16,29.37,17,8,23,0.11
2013-3-21,41.7,33.3,25.2,29.0,24.4,18.3,90,71,50,29.99,29.74,11,6,22,0.00
2013-3-22,32.1,29.4,28.3,30.3,28.3,27.3,97,95,86,29.75,29.38,9,5,22,0.00
2013-3-26,32.0,31.8,31.7,31.2,31.0,30.9,97,97,97,29.63,29.56,3,2,22,0.01
2013-3-27,35.9,32.7,31.1,33.5,31.3,29.7,98,95,89,29.93,29.63,5,3,22,0.24
2013-3-28,38.1,34.2,27.5,32.1,30.2,25.7,94,85,77,30.01,29.92,4,2,22,0.00
2013-3-29,36.3,30.6,20.5,29.1,25.9,19.0,95,83,72,30.09,29.99,5,2,22,0.00
2013-3-30,37.6,27.2,14.7,27.9,21.3,12.6,96,79,61,30.20,30.08,4,1,22,0.00
2013-3-31,45.7,31.9,13.0,26.5,18.4,10.9,96,62,30,30.29,30.20,4,1,22,0.00
2013-4-1,42.2,36.0,28.9,39.5,32.1,19.8,96,86,65,30.23,29.69,16,6,22,0.05
2013-4-2,39.4,35.0,28.0,38.4,27.6,17.8,96,76,50,29.82,29.60,13,6,22,0.06
2013-4-3,31.3,27.2,23.4,22.6,16.1,7.5,87,63,47,29.87,29.77,11,6,22,0.00
2013-4-4,42.7,33.8,27.3,23.5,18.8,11.9,74,56,29,30.14,29.87,9,5,22,0.00
2013-4-5,50.2,40.1,33.8,38.7,31.7,24.2,95,73,51,30.14,29.76,13,8,22,0.12
2013-4-6,39.2,32.4,28.2,37.9,27.1,15.4,97,82,58,30.31,29.62,6,3,22,0.10
2013-4-7,38.8,32.2,25.1,27.2,18.0,12.1,71,56,34,30.49,30.25,5,2,22,0.00
2013-4-8,47.3,36.6,29.8,42.1,32.0,23.3,97,84,63,30.31,30.08,9,4,22,0.02
2013-4-9,37.3,33.4,29.1,33.6,31.5,28.4,97,93,81,30.32,30.15,3,0,22,0.04
2013-4-10,42.8,35.0,30.7,37.9,33.0,28.9,97,93,79,30.16,30.00,4,1,22,0.01
2013-4-11,40.0,36.0,32.9,33.2,26.3,18.0,95,70,44,30.18,29.96,6,2,22,0.00
2013-4-12,38.4,34.1,31.2,32.3,28.0,24.4,94,79,61,30.40,30.18,5,2,22,0.00
2013-4-13,35.6,33.1,31.7,34.3,32.1,30.4,97,96,94,30.31,29.96,4,2,22,0.19
2013-4-14,37.8,33.8,31.6,36.5,32.9,30.8,98,97,94,30.28,30.08,4,1,22,0.42
2013-4-15,44.2,35.2,26.1,33.7,29.8,24.6,98,82,49,30.58,30.28,4,1,22,0.01
2013-4-16,55.6,40.3,24.0,36.7,31.1,22.8,97,73,40,30.59,30.09,16,7,22,0.02
2013-4-17,43.9,41.3,39.4,42.5,39.4,36.1,96,93,87,30.08,29.92,15,11,22,0.17
2013-4-18,37.7,35.6,34.5,28.1,25.9,24.9,70,68,64,30.53,30.46,7,5,22,0.00
2013-4-19,68.8,52.0,36.4,59.0,44.8,26.8,91,77,65,30.46,29.93,16,10,22,0.00
2013-4-20,64.1,55.9,44.7,59.3,53.0,41.1,95,90,80,30.11,29.76,16,10,22,0.09
2013-4-21,44.5,36.8,23.6,41.5,28.4,20.3,90,72,55,30.83,30.11,6,2,22,0.00
2013-4-22,42.6,32.4,18.8,30.8,24.9,17.1,95,75,52,31.04,30.83,4,1,22,0.00
2013-4-23,53.0,40.0,27.4,37.9,27.3,14.0,92,65,23,30.95,30.66,10,4,22,0.04
2013-4-24,60.5,49.2,38.0,56.3,47.3,36.5,96,93,86,30.65,30.09,13,8,22,0.20
2013-4-25,64.1,54.0,46.4,55.3,49.5,43.9,95,85,71,30.35,30.05,17,9,24,0.07
2013-4-26,50.8,38.9,34.9,49.4,35.4,32.5,95,87,82,30.61,30.35,5,3,22,0.03
2013-4-27,38.7,35.3,29.0,35.4,33.4,28.0,97,93,84,30.55,30.49,6,2,22,0.04
2013-4-28,48.3,39.4,27.5,36.3,33.2,26.5,98,80,58,30.51,30.43,5,2,22,0.01
2013-4-29,43.7,38.1,30.6,41.2,36.2,29.2,96,93,88,30.48,30.43,3,1,22,0.00
2013-4-30,55.1,45.9,36.8,49.0,42.8,35.8,96,89,79,30.59,30.48,3,1,22,0.00
2013-5-1,56.7,43.2,33.5,47.4,40.0,32.6,98,89,70,30.66,30.58,5,1,22,0.00
2013-5-2,44.2,40.5,37.3,39.4,37.7,36.0,97,90,81,30.74,30.63,7,4,22,0.00
2013-5-3,47.4,41.5,37.0,41.4,37.8,35.1,96,87,74,30.74,30.63,5,2,22,0.00
2013-5-4,51.5,41.0,27.9,41.2,34.7,26.9,98,80,59,30.63,30.49,4,1,22,0.00
2013-5-5,68.9,52.4,31.8,43.8,38.9,29.7,95,64,36,30.49,30.33,9,5,22,0.00
2013-5-6,65.5,51.2,43.6,42.0,39.4,37.5,80,66,39,30.39,30.34,10,8,22,0.00
2013-5-8,69.6,62.4,53.1,52.7,50.2,45.0,80,65,54,30.44,30.36,6,3,22,0.00
2013-5-9,71.0,60.5,51.9,58.4,54.9,49.9,94,82,62,30.37,30.15,13,8,22,0.00
2013-5-10,62.5,58.1,55.4,57.5,55.6,54.0,95,92,82,30.15,30.08,9,7,22,0.00
2013-5-13,60.6,54.9,46.8,53.4,39.8,32.1,95,59,36,30.15,29.83,16,7,23,0.03
2013-5-14,48.5,44.8,41.6,43.4,39.7,34.0,95,83,61,30.18,29.94,7,2,22,0.20
2013-5-15,57.9,47.2,38.7,46.5,40.4,35.3,96,79,45,30.06,29.84,13,6,22,0.67
2013-5-16,53.7,47.3,40.1,49.3,43.0,35.1,95,85,66,30.05,29.77,11,4,22,0.00
2013-5-17,49.4,43.7,37.9,48.0,41.9,36.4,96,93,85,30.21,29.78,4,3,22,0.07
2013-5-18,38.5,37.0,35.7,36.8,34.4,28.8,96,90,74,30.55,30.21,7,5,22,0.21
2013-5-19,50.3,40.5,28.5,37.6,30.8,26.4,95,69,51,30.60,30.50,5,2,22,0.00
2013-5-20,58.7,45.3,27.2,44.0,34.9,25.9,97,71,32,30.50,30.22,7,3,22,0.00
2013-5-21,57.0,48.9,43.4,51.5,46.6,42.2,97,92,79,30.23,30.17,8,3,22,0.03
2013-5-22,57.4,49.8,43.1,50.9,46.9,41.4,97,90,78,30.28,30.21,4,1,22,0.00
2013-5-23,64.7,55.8,47.5,59.8,51.9,43.9,93,87,79,30.25,30.00,13,7,22,0.00
2013-5-24,72.9,64.9,60.5,64.1,60.9,58.6,95,87,73,30.06,29.96,17,10,22,0.00
2013-5-25,62.9,51.5,44.1,60.7,50.2,43.3,99,95,89,30.15,29.97,11,3,22,0.50
2013-5-26,64.9,57.5,48.0,59.6,51.0,42.7,97,80,53,30.04,29.95,14,7,22,0.14
2013-5-27,53.0,48.7,44.6,46.8,44.7,42.8,96,86,73,30.18,29.94,8,3,22,0.05
2013-5-28,44.4,44.0,43.6,43.2,42.9,42.5,96,96,95,30.20,30.18,1,0,22,0.00
2013-5-29,70.8,63.2,54.2,47.8,42.6,39.5,79,48,34,30.51,30.32,7,6,22,0.00
2013-5-30,62.3,57.2,53.7,59.0,55.0,48.3,98,92,80,30.33,30.04,8,3,22,0.27
2013-5-31,82.2,68.6,53.4,66.9,61.0,52.6,98,79,53,30.10,29.89,9,4,22,0.02
2013-6-1,66.1,59.9,53.9,64.2,56.2,46.0,96,88,70,30.12,29.92,3,1,22,0.06
2013-6-2,55.7,55.6,55.5,53.4,53.2,53.1,92,92,91,29.97,29.96,0,0,22,0.00
2013-6-5,59.0,54.4,49.0,44.0,41.4,38.1,78,62,46,30.17,30.14,5,2,22,0.00
2013-6-6,65.8,55.9,44.0,45.7,39.9,30.8,83,57,35,30.35,30.16,6,2,22,0.00
2013-6-7,69.3,58.7,48.5,52.5,47.4,42.9,88,68,40,30.36,30.29,7,2,22,0.00
2013-6-8,56.3,51.6,49.1,50.8,48.8,45.8,97,90,73,30.32,29.87,12,4,22,1.49
2013-6-9,56.0,49.6,46.7,51.1,47.1,45.4,97,91,79,30.25,29.93,3,1,22,0.06
2013-6-10,70.3,58.7,48.3,56.1,51.6,46.0,94,79,54,30.29,30.15,6,2,22,0.17
2013-6-11,72.4,61.8,52.8,61.5,54.4,49.8,90,78,53,30.15,29.94,7,3,22,0.00
2013-6-12,58.7,55.2,50.9,55.6,52.7,49.8,97,91,84,29.95,29.82,7,2,22,0.19
2013-6-13,53.0,50.7,48.7,49.9,47.8,46.1,97,90,81,29.90,29.77,5,2,22,0.13
2013-6-14,59.9,52.3,48.5,52.9,49.0,46.5,95,89,75,29.90,29.83,2,0,22,0.00
2013-6-15,70.9,58.1,40.9,58.5,50.3,39.8,98,77,49,29.83,29.78,5,2,22,0.00
2013-6-16,70.2,60.4,52.4,49.1,44.6,37.5,87,58,34,30.01,29.83,5,2,22,0.03
2013-6-17,70.7,59.9,51.9,60.6,55.2,49.4,96,85,70,30.02,29.88,5,1,22,0.08
2013-6-18,66.0,59.9,58.0,60.3,57.6,56.1,96,92,82,29.96,29.91,5,2,22,0.02
2013-6-21,61.7,61.5,61.1,54.8,54.6,54.2,78,78,78,30.27,30.27,5,5,22,0.00
2013-6-22,68.3,65.0,63.0,56.7,55.0,54.2,80,70,62,30.19,30.15,5,4,22,0.00
2013-6-23,80.9,69.2,59.0,67.7,61.7,56.1,95,78,60,30.25,30.09,7,2,22,0.61
2013-6-24,77.0,68.8,61.3,70.4,64.8,59.9,96,87,76,30.08,29.83,6,4,22,0.01
2013-6-25,80.1,69.8,62.2,71.1,64.9,60.4,96,85,71,29.90,29.80,5,1,22,0.00
2013-6-26,66.9,56.7,52.5,65.4,54.6,50.2,95,93,89,30.06,29.79,3,2,22,0.00
2013-6-27,63.2,56.2,52.2,59.3,53.9,50.0,96,92,84,30.17,30.00,3,1,22,0.01
2013-6-28,61.1,56.2,53.0,57.5,54.1,51.1,97,93,87,30.16,29.97,7,3,22,0.60
2013-6-29,75.9,68.4,56.6,71.4,65.9,55.8,97,92,83,29.97,29.85,12,7,22,0.02
2013-6-30,77.4,69.7,64.9,70.4,66.5,63.5,96,90,77,30.08,29.86,11,7,22,0.11
2013-7-1,77.1,70.2,62.9,70.5,66.9,58.6,95,89,79,30.27,30.05,8,4,22,0.00
2013-7-2,69.0,62.4,54.1,58.9,54.4,51.2,93,75,61,30.43,30.26,2,0,22,0.00
2013-7-3,73.4,64.9,53.4,65.0,59.8,51.4,95,84,71,30.36,30.14,6,2,22,0.00
2013-7-4,88.5,75.8,62.2,72.3,65.9,60.5,95,74,40,30.17,30.03,6,3,22,0.00
2013-7-5,90.4,79.5,69.8,73.9,68.5,63.8,84,70,51,30.07,29.93,5,3,22,0.00
2013-7-6,87.6,79.0,70.3,72.5,68.0,62.8,87,70,54,30.02,29.87,5,2,22,0.00
2013-7-7,87.2,75.2,64.5,71.0,66.2,57.0,88,75,53,30.02,29.86,4,1,22,0.03
2013-7-8,76.5,65.4,51.0,61.2,55.7,49.0,93,72,47,30.24,30.00,2,1,22,0.00
2013-7-9,73.2,61.8,45.9,58.6,53.1,44.8,98,75,56,30.34,30.22,3,1,22,0.00
2013-7-10,78.5,65.9,52.7,60.2,54.1,46.3,97,69,37,30.30,30.06,9,4,22,0.00
2013-7-11,79.6,70.9,63.4,73.3,67.4,59.1,94,89,81,30.09,29.89,10,6,22,0.09
2013-7-12,71.9,67.1,50.6,69.3,59.3,48.9,94,77,63,30.35,29.98,4,1,22,0.00
2013-7-13,84.1,66.8,44.7,61.7,54.1,43.6,97,69,35,30.42,30.34,4,1,22,0.00
2013-7-14,89.3,75.5,58.5,69.0,62.5,55.6,91,66,41,30.36,30.19,5,2,22,0.00
2013-7-15,94.8,80.2,65.8,67.2,63.7,60.0,85,61,33,30.21,30.03,5,2,22,0.00
2013-7-16,74.3,68.6,51.9,66.2,59.4,49.0,90,73,56,30.36,30.11,3,1,22,0.00
2013-7-17,78.5,64.8,46.2,61.6,53.1,44.6,97,69,40,30.36,30.03,11,5,22,0.00
2013-7-18,76.8,69.3,56.6,69.7,62.4,53.1,95,80,56,30.15,29.92,13,4,22,0.31
2013-7-19,71.9,62.2,49.7,69.1,58.3,48.3,96,88,66,30.16,29.65,10,4,22,0.06
2013-7-20,86.9,77.3,70.2,71.5,68.9,66.2,91,76,56,29.69,29.60,10,6,22,0.00
2013-7-21,72.2,66.9,59.0,66.9,56.5,51.5,89,70,51,30.11,29.66,7,2,22,0.00
2013-7-22,77.3,66.8,53.3,59.2,54.2,47.4,94,67,39,30.18,30.08,5,1,22,0.00
2013-7-23,74.7,66.2,58.9,68.4,58.4,54.4,97,77,52,30.15,29.67,8,3,22,1.42
2013-7-24,79.2,72.8,69.2,71.1,69.2,67.5,96,89,74,29.95,29.62,8,4,22,0.01
2013-7-25,70.6,65.2,62.1,68.5,61.2,58.5,95,87,80,30.37,29.96,4,1,22,0.00
2013-7-26,83.9,69.2,61.5,76.0,66.7,59.6,98,92,75,30.37,30.17,8,2,22,0.59
2013-7-29,72.6,68.7,66.8,68.2,66.5,65.6,96,93,86,30.22,30.18,7,3,22,0.04
2013-7-30,76.6,71.0,66.7,70.7,67.9,65.5,97,90,77,30.22,30.03,5,2,15,0.04
2013-7-31,77.8,69.3,60.1,65.6,61.7,59.1,98,78,53,30.13,30.04,6,2,15,0.01
2013-8-1,82.1,70.8,61.0,67.2,61.3,57.2,91,74,44,30.15,30.10,6,2,15,0.00
2013-8-2,75.1,67.9,58.3,65.2,62.1,56.4,96,83,66,30.10,29.91,5,2,15,0.04
2013-8-3,78.6,68.4,58.6,66.1,63.2,57.5,97,85,59,29.91,29.79,9,4,15,0.09
2013-8-4,77.6,67.8,59.3,63.9,60.7,58.2,97,80,53,29.86,29.78,6,3,15,0.01
2013-8-5,75.4,62.7,53.8,65.8,59.4,52.7,98,89,68,29.92,29.80,4,1,15,0.37
2013-8-6,76.1,65.1,55.5,62.1,58.4,54.4,97,80,54,30.24,29.89,5,2,15,0.02
2013-8-7,79.3,67.5,54.5,65.2,59.4,52.6,95,77,56,30.32,30.22,4,1,15,0.00
2013-8-8,77.7,66.2,51.9,61.2,56.9,50.8,98,74,47,30.31,30.22,8,2,15,0.00
2013-8-9,73.7,68.7,66.0,68.9,64.9,57.6,96,88,72,30.25,30.06,8,5,15,0.82
2013-8-10,78.8,70.2,62.7,70.2,64.5,52.8,96,83,62,30.06,29.73,10,5,15,0.24
2013-8-11,75.0,66.4,57.2,58.2,54.3,50.1,85,66,45,30.00,29.87,7,3,15,0.00
2013-8-12,77.8,67.5,58.2,63.0,58.5,55.3,91,74,53,30.05,29.97,7,3,15,0.00
2013-8-13,78.5,68.5,60.4,65.1,60.6,55.9,89,76,59,30.04,29.90,7,4,15,0.00
2013-8-14,78.2,68.4,62.2,69.0,64.6,60.6,96,88,72,29.92,29.65,8,3,15,0.13
2013-8-15,73.8,64.8,57.5,60.8,55.9,51.1,95,75,48,30.14,29.72,7,3,15,0.00
2013-8-16,77.7,67.6,58.0,63.1,58.8,55.7,93,75,49,30.31,30.12,7,4,15,0.00
2013-8-17,74.4,64.3,52.5,64.5,58.4,51.1,97,82,60,30.34,30.28,5,1,15,0.00
2013-8-18,77.0,66.8,51.8,61.3,56.4,50.7,98,72,47,30.34,30.08,8,4,15,0.00
2013-8-19,79.7,67.6,59.2,65.8,60.0,-99.9,94,78,58,30.09,29.81,9,4,15,0.00
2013-8-20,71.9,62.2,54.7,65.8,58.6,53.2,98,88,75,30.25,29.94,2,1,15,0.00
2013-8-21,83.3,70.5,55.1,68.5,62.8,53.1,97,78,54,30.24,30.04,10,5,17,0.00
2013-8-22,84.4,75.0,67.0,68.1,64.2,61.2,82,70,54,30.08,29.86,13,7,16,0.00
2013-8-23,71.6,64.9,53.2,65.4,59.8,50.1,93,84,74,30.16,29.76,8,2,15,0.01
2013-8-24,68.2,59.3,44.4,54.9,50.8,42.5,94,75,57,30.39,30.16,2,1,15,0.00
2013-8-25,78.8,60.3,41.1,60.6,51.0,40.0,97,75,40,30.41,30.29,4,0,15,0.00
2013-8-26,71.8,63.8,52.8,61.6,57.1,50.5,97,80,58,30.29,29.98,8,4,15,0.02
2013-8-27,77.0,66.5,60.1,68.5,63.4,58.7,96,90,73,30.04,29.93,7,3,15,0.00
2013-8-28,78.1,67.4,60.6,70.1,64.0,59.4,98,89,73,30.22,29.99,3,0,15,0.00
2013-8-29,64.9,62.4,59.4,61.1,59.1,56.3,93,89,83,30.26,30.06,3,1,15,0.00
2013-8-30,61.5,59.0,54.9,59.4,56.2,51.2,97,90,80,30.05,29.78,4,1,15,0.33
2013-8-31,76.9,63.4,50.0,64.0,57.8,48.6,98,83,60,30.04,29.82,3,0,15,0.01
2013-9-1,70.7,65.3,62.0,67.3,63.3,60.6,96,94,88,30.14,29.93,5,1,15,0.08
2013-9-2,64.1,62.1,60.4,61.5,59.4,57.8,96,91,83,30.26,30.12,5,0,15,0.04
2013-9-3,69.8,66.3,61.6,68.9,65.2,59.9,98,96,94,30.17,29.85,10,6,20,1.25
2013-9-4,73.6,68.8,63.9,68.5,66.2,61.8,97,91,78,29.90,29.76,9,5,15,0.00
2013-9-5,64.9,55.0,43.7,62.1,50.6,42.6,98,85,75,30.14,29.90,2,0,15,0.09
2013-9-6,62.4,53.2,42.8,48.9,45.5,41.3,97,77,55,30.23,30.12,8,3,15,0.01
2013-9-7,71.0,61.6,51.6,55.9,51.8,48.6,91,72,50,30.12,29.87,14,8,20,0.00
2013-9-8,62.3,57.4,48.6,59.0,54.9,45.1,96,92,71,29.87,29.63,8,4,15,1.11
2013-9-9,62.7,54.2,45.5,48.4,45.3,40.1,93,74,47,30.20,29.85,10,4,15,0.04
2013-9-10,65.0,59.8,53.2,58.9,55.2,48.2,93,85,75,30.30,30.19,10,5,15,0.00
2013-9-11,72.5,65.6,59.1,68.0,62.8,57.3,97,91,81,30.29,29.99,10,4,15,0.09
2013-9-12,76.0,71.0,66.5,70.6,67.4,64.2,96,89,78,30.04,29.86,9,4,15,0.03
2013-9-13,70.5,68.4,65.8,69.0,66.8,63.3,97,95,91,29.88,29.74,9,5,15,1.99
2013-9-14,70.0,66.7,65.7,68.4,65.8,64.8,98,97,93,29.93,29.71,7,2,15,0.00
2013-9-16,66.4,56.6,49.6,57.9,52.6,44.8,95,87,70,30.17,30.06,5,1,15,0.13
2013-9-17,61.6,52.8,46.6,48.1,42.8,36.6,84,69,58,30.36,30.18,3,1,15,0.00
2013-9-18,66.7,66.7,66.6,51.5,50.6,49.9,58,56,55,30.12,30.12,7,6,15,0.00
2013-9-20,55.6,50.7,45.7,50.2,43.8,-99.9,90,80,77,30.34,30.30,3,-14,15,0.00
2013-9-21,70.1,59.2,44.2,60.3,54.2,42.0,94,84,69,30.32,30.05,13,6,20,0.00
2013-9-22,76.8,68.4,60.0,67.2,62.7,57.6,94,83,67,30.05,29.78,12,8,22,0.00
2013-9-23,69.4,59.2,49.6,65.9,56.0,46.2,96,89,78,29.78,29.68,7,3,15,0.79
2013-9-24,55.1,50.7,46.5,48.4,46.5,44.9,95,86,74,29.88,29.76,5,2,15,0.00
2013-9-25,58.9,52.6,48.8,53.8,50.2,47.4,97,92,79,29.90,29.84,3,1,15,0.39
2013-9-26,55.8,54.4,53.2,54.1,52.8,51.2,97,94,87,30.12,29.89,5,4,15,0.17
2013-9-27,58.7,53.5,43.2,52.0,49.3,41.6,95,86,73,30.36,30.12,5,3,15,0.00
2013-9-28,73.4,56.1,38.8,55.6,48.1,37.8,98,78,44,30.43,30.33,5,1,15,0.01
2013-9-29,59.1,55.9,53.7,50.7,49.1,46.4,87,78,63,30.33,30.24,6,4,15,0.00
2013-9-30,68.9,58.2,45.6,57.0,51.1,43.7,97,79,50,30.26,30.15,6,2,15,0.00
2013-10-1,67.7,57.0,52.2,59.3,53.7,50.3,96,89,73,30.15,29.90,2,0,15,0.09
2013-10-2,71.6,59.9,50.6,61.6,55.5,49.5,97,86,67,29.90,29.70,7,2,15,0.01
2013-10-3,66.0,59.0,50.4,54.9,49.0,45.6,92,70,55,30.01,29.76,4,2,15,0.00
2013-10-4,57.7,53.4,46.7,47.6,44.2,41.8,89,72,57,30.13,29.99,4,2,15,0.00
2013-10-5,48.7,45.0,42.5,43.2,41.3,40.0,94,87,79,30.18,30.13,2,0,15,0.00
2013-10-9,58.8,52.5,42.0,47.7,44.9,40.1,96,76,61,30.55,30.45,5,1,15,0.00
2013-10-10,65.9,55.7,47.9,51.3,48.0,45.4,94,77,50,30.45,30.24,8,4,15,0.00
2013-10-11,59.0,50.8,42.6,55.2,47.6,41.5,97,89,81,30.42,30.24,3,1,15,0.00
2013-10-12,49.7,44.4,30.0,43.1,36.8,28.4,94,75,62,30.59,30.42,4,2,15,0.00
2013-10-13,53.4,41.6,29.3,41.7,35.9,27.8,97,81,62,30.61,30.52,2,0,15,0.00
2013-10-14,61.7,46.7,28.1,51.3,41.7,26.9,98,84,60,30.52,30.32,7,3,15,0.01
2013-10-15,58.8,50.6,34.2,53.9,45.9,32.9,95,85,63,30.46,30.28,3,1,15,0.01
2013-10-16,59.8,45.6,29.3,52.1,40.7,28.3,98,84,60,30.47,30.19,6,2,15,0.20
2013-10-17,68.8,59.8,53.5,65.4,57.7,52.1,97,93,81,30.18,29.81,7,3,15,0.36
2013-10-18,58.0,54.4,49.9,54.9,52.8,48.8,97,94,86,29.85,29.67,6,2,15,0.09
2013-10-19,57.8,50.7,40.5,52.1,46.1,38.9,97,85,64,30.01,29.71,6,2,15,0.02
2013-10-20,58.5,50.4,41.6,52.1,47.0,40.8,97,89,65,30.01,29.76,7,2,15,0.20
2013-10-21,48.1,45.9,41.5,44.3,41.2,37.9,94,84,75,30.15,29.85,5,2,15,0.00
2013-10-22,57.7,47.6,35.5,47.9,42.2,34.5,98,83,51,30.19,29.87,7,3,15,0.04
2013-10-23,53.9,47.1,34.4,51.2,42.6,32.9,96,85,59,29.86,29.66,6,1,15,0.65
2013-10-24,49.2,43.3,36.8,40.7,34.0,25.7,97,72,49,29.74,29.59,8,3,15,0.00
2013-10-25,49.4,43.0,35.2,38.3,34.1,29.1,85,71,57,30.03,29.73,8,4,15,0.00
2013-10-26,47.6,41.5,33.5,38.0,34.4,31.2,93,76,60,30.16,30.03,7,2,15,0.00
2013-10-27,46.7,41.8,36.4,45.5,40.4,35.4,97,95,86,30.14,29.87,6,1,15,0.34
2013-10-28,46.6,41.8,37.4,40.0,36.1,30.4,97,81,54,30.28,29.95,7,3,15,0.01
2013-10-29,43.8,36.3,29.8,32.6,28.5,24.3,87,74,53,30.51,30.28,6,2,15,0.00
2013-10-30,43.9,33.2,24.6,34.3,26.6,21.0,88,77,62,30.50,30.25,9,2,15,0.00
2013-10-31,45.0,38.1,28.6,40.7,28.7,22.5,92,70,46,30.38,30.09,9,3,15,0.06
2013-11-1,65.4,57.6,42.9,61.0,55.8,41.0,97,94,81,30.09,29.45,18,11,29,0.67
2013-11-2,63.1,54.5,46.8,56.9,47.5,41.6,90,78,61,29.85,29.48,16,5,24,0.00
2013-11-3,46.7,40.2,36.8,41.2,30.6,26.2,81,68,60,30.34,29.84,3,2,15,0.00
2013-11-4,39.7,38.0,35.9,32.7,28.7,24.8,87,69,59,30.81,30.34,5,3,15,0.04
2013-11-5,43.8,35.6,26.6,32.8,27.9,23.5,93,74,50,30.86,30.68,5,1,15,0.01
2013-11-6,50.7,43.2,29.4,42.9,38.0,25.7,89,82,70,30.70,30.21,10,5,20,0.00
2013-11-7,57.9,52.9,46.8,55.0,49.7,42.8,97,89,78,30.21,29.66,14,8,19,0.40
2013-11-8,47.5,39.4,34.1,46.7,33.2,29.4,97,79,65,29.80,29.68,3,1,15,0.13
2013-11-9,37.9,34.7,32.7,33.9,30.0,26.5,96,83,70,30.20,29.80,4,1,15,0.11
2013-11-10,41.2,35.8,29.4,37.6,31.5,28.0,97,85,63,30.23,29.87,5,1,15,0.23
2013-11-11,43.1,41.2,38.4,42.0,40.0,37.1,96,96,92,30.04,29.75,3,0,15,1.81
2013-11-12,41.8,35.1,27.9,40.2,32.7,21.8,95,91,77,30.06,29.91,7,3,17,0.21
2013-11-13,31.2,28.5,24.9,24.0,21.0,17.9,82,73,63,30.16,30.01,5,3,15,0.00
2013-11-14,39.3,31.9,22.1,31.6,25.3,17.4,87,76,64,30.18,30.05,9,3,15,0.00
2013-11-15,48.9,41.2,36.3,40.9,35.8,30.7,95,81,74,30.35,30.17,9,3,15,0.00
2013-11-16,49.5,39.7,32.6,43.7,37.5,31.6,97,92,67,30.52,30.34,4,0,15,0.00
2013-11-17,45.8,36.5,30.9,43.9,35.5,30.0,98,96,88,30.57,30.40,4,0,15,0.02
2013-11-18,57.4,47.8,34.9,56.0,46.1,34.4,98,94,87,30.39,29.68,14,8,20,0.78
2013-11-19,53.9,43.8,32.2,53.1,39.6,25.6,98,85,65,29.94,29.65,4,2,15,0.01
2013-11-20,33.0,30.5,27.4,26.8,23.7,19.8,95,76,62,30.46,29.94,7,4,15,0.00
2013-11-21,40.2,36.3,31.4,34.8,27.7,20.6,83,71,62,30.49,30.38,6,4,15,0.00
2013-11-22,44.1,36.7,27.7,37.1,32.5,26.5,96,85,74,30.37,29.91,4,1,15,0.00
2013-11-23,36.5,32.8,27.8,34.5,30.4,22.6,97,91,69,29.91,29.48,8,3,20,0.05
2013-11-26,35.9,31.9,25.9,34.2,29.5,23.9,94,91,87,30.53,30.40,7,2,15,0.03
2013-11-27,56.9,42.5,23.7,56.1,41.1,22.1,97,95,92,30.51,29.51,15,7,25,0.69
2013-11-28,59.5,44.1,25.4,58.4,39.7,17.6,97,85,70,30.29,29.37,18,10,34,0.06
2013-11-29,25.3,22.6,20.0,20.3,15.0,13.1,85,72,63,30.67,30.29,7,3,15,0.00
2013-11-30,28.7,21.9,11.0,19.5,14.4,8.2,91,73,52,30.84,30.67,4,2,15,0.00
2013-12-1,33.6,27.4,10.8,31.0,24.7,8.4,96,89,77,30.76,30.42,12,4,16,0.00
2013-12-2,39.5,34.7,28.8,37.5,33.6,27.8,98,96,92,30.43,30.16,1,0,15,0.04
2013-12-3,42.6,39.2,36.9,42.1,38.6,36.1,98,98,97,30.15,29.63,7,1,15,0.62
2013-12-4,40.1,34.4,29.3,39.6,33.9,28.8,98,98,98,30.18,29.39,10,6,20,1.90
2013-12-5,32.9,30.0,29.1,31.9,28.7,26.7,98,95,90,30.46,30.18,8,2,15,0.00
2013-12-6,44.7,39.0,33.1,44.2,38.4,32.1,98,97,94,30.24,29.93,10,4,15,0.36
2013-12-7,34.5,31.3,25.5,33.9,24.5,15.0,98,76,61,30.27,30.06,5,2,15,0.00
2013-12-8,25.8,23.2,20.0,16.0,13.7,8.1,77,67,59,30.61,30.27,6,3,15,0.00
2013-12-9,24.6,20.8,16.7,23.1,16.0,8.6,94,82,61,30.67,30.10,5,2,15,0.00
2013-12-10,33.2,29.6,24.8,30.3,25.9,21.1,96,86,73,30.09,29.72,7,3,15,0.00
2013-12-11,26.3,19.2,14.2,20.1,10.2,5.9,90,68,53,30.12,29.71,7,4,15,0.00
2013-12-12,18.1,9.4,2.2,12.7,1.1,-4.7,79,69,58,30.20,30.10,5,3,15,0.00
2013-12-13,17.9,8.1,-0.7,13.9,3.2,-5.3,89,80,65,30.27,29.92,8,3,15,0.00
2013-12-14,7.2,2.6,-1.2,-1.1,-4.2,-8.0,82,73,65,30.73,30.28,6,4,15,0.00
2013-12-15,29.7,16.8,3.8,29.0,14.3,-1.3,97,90,79,30.72,29.35,8,3,15,0.00
2013-12-16,28.8,21.8,13.5,28.1,19.6,9.7,97,91,83,30.01,29.44,10,4,16,0.00
2013-12-17,17.3,7.7,-8.6,10.6,3.6,-11.7,90,83,72,30.51,30.02,7,3,15,0.00
2013-12-18,29.2,18.3,-8.9,28.5,16.8,-12.0,97,94,85,30.47,29.57,9,2,15,0.00
2013-12-19,25.4,19.5,13.6,24.4,16.2,11.4,96,87,76,30.13,29.77,6,3,15,0.00
2013-12-20,23.9,18.9,16.8,22.7,14.6,11.3,95,83,72,30.41,30.14,5,1,15,0.00
2013-12-21,34.0,30.7,24.3,33.2,29.8,22.9,97,96,94,30.21,29.98,3,1,15,0.45
2013-12-22,31.6,26.8,23.1,30.8,25.7,21.9,97,96,94,30.40,30.12,6,3,15,0.00
2013-12-23,31.5,27.2,22.9,31.0,26.3,21.7,98,96,95,30.43,30.13,5,1,15,0.00
2013-12-24,32.3,29.6,24.6,31.8,29.0,23.6,98,97,96,30.16,30.04,4,1,15,0.00
2013-12-25,24.6,18.7,11.3,23.6,15.9,8.6,96,89,78,30.67,30.07,5,3,15,0.00
2013-12-26,25.9,13.7,-3.3,24.9,11.3,-6.0,96,90,85,30.73,30.27,6,2,15,0.00
2013-12-27,31.0,24.9,15.9,29.5,23.3,13.2,97,93,88,30.26,30.09,1,0,15,0.00
2013-12-28,31.1,21.4,8.7,28.2,18.7,6.6,93,89,80,30.22,29.98,5,2,18,0.00
2013-12-29,30.9,22.3,18.0,28.0,18.8,14.3,95,86,73,30.35,30.03,4,2,15,0.00
2013-12-30,33.0,27.1,10.2,32.2,25.2,5.5,98,93,79,30.10,29.51,10,2,15,0.02
2013-12-31,9.8,4.4,0.0,5.1,-0.0,-3.7,86,81,76,30.24,30.10,2,0,15,0.00
2014-1-1,8.0,1.6,-4.2,2.0,-2.9,-7.3,87,81,75,30.45,30.14,2,0,15,0.00
2014-1-2,-0.5,-7.3,-12.2,-6.5,-12.6,-17.4,85,77,64,30.62,30.40,3,1,15,0.00